Terug naar catalogus

STARLINK-33699

ActiefCommunicatieVLEO
NORAD 63328·PAYLOAD·🇺🇸 United States

Gelanceerd Mar 18, 2025 vanaf Cape Canaveral Space Force Station

Loading…

Volgende Passages (komende 24 uur)

TLE

VersSource: CelesTrak SupGP

Epoch: Sep 14, 2026, 21:15 UTC

1 63328C 25057X   26257.88590278  .00051899  00000+0  18799-2 0  2574
2 63328  43.0040  34.6093 0001455 275.7602  32.9865 15.27550378    11

Volg STARLINK-33699 in realtime met AllMySat

Download on the App Store